Regional Weather Roundup
Issued by NWS

Home | Current Version | Previous Version | Graphics & Text | Print | Product List | Glossary Off
Versions: 1 2 3 4 5 6 7 8 9 10 11 12 13 14 15 16 17 18 19 20 21 22 23 24 25 26 27 28 29 30 31 32 33 34 35 36 37 38 39 40 41 42 43 44 45 46 47 48 49 50

395
ASUS43 KTOP 210359
RWRKS

WEATHER ROUNDUP FOR KANSAS
NATIONAL WEATHER SERVICE GOODLAND KS
1100 PM CDT FRI APR 20 2018

NOTE:  "FAIR" INDICATES FEW OR NO CLOUDS BELOW 12,000 FEET WITH NO
SIGNIFICANT WEATHER AND/OR OBSTRUCTIONS TO VISIBILITY.

KSZ001>006-013>018-027>032-041>047-210500-
NORTHWEST KANSAS

CITY           SKY/WX    TMP DP  RH WIND       PRES   REMARKS
GOODLAND       LGT RAIN  40  38  93 SE20G26   30.14R WCI  30
HAYS           LGT RAIN  46  40  79 E22       30.21F
HILL CITY      LGT RAIN  46  43  89 E12       30.22R
RUSSELL        RAIN      48  41  76 SE16G35   30.23R
$$

KSZ061>065-074>080-084>089-210500-
SOUTHWEST KANSAS

CITY           SKY/WX    TMP DP  RH WIND       PRES   REMARKS
DODGE CITY     RAIN      46  42  86 E8        30.17R FOG
GREAT BEND     RAIN      47  41  80 E12       30.23R
LIBERAL        RAIN      45  44  97 NE10      30.14R
$$

KSZ066>073-081>083-090>101-210500-
SOUTHEAST KANSAS

CITY           SKY/WX    TMP DP  RH WIND       PRES   REMARKS
CHANUTE        CLOUDY    58  29  33 E8        30.17S
COFFEYVILLE    CLOUDY    54  35  48 CALM      30.16R
HUTCHINSON     LGT RAIN  55  33  43 E15       30.17R
MEDICINE LODGE   N/A     52  41  66 NE6       30.17R
NEWTON         CLOUDY    55  30  38 E9        30.19
PARSONS        CLOUDY    58  29  33 E5        30.16R
WICHITA INTL   CLOUDY    57  35  43 E15       30.14F
WICHITA JABRA  CLOUDY    55  33  43 E6        30.16R
WICHITA MCCONL CLOUDY    57  31  36 E8        30.16
WINFIELD       CLOUDY    58  31  35 NE3       30.15R
$$

KSZ007>012-019>026-033>040-048>060-102>105-210500-
NORTHEAST KANSAS

CITY           SKY/WX    TMP DP  RH WIND       PRES   REMARKS
CONCORDIA      CLOUDY    54  26  34 SE8       30.26R
EMPORIA        CLOUDY    55  30  38 NE7       30.21R
LAWRENCE       CLOUDY    56  28  34 NE10      30.23F
MANHATTAN      CLOUDY    56  27  32 E9        30.25R
OLATHE IND     PTCLDY    57  25  29 E13G21    30.23S
OLATHE EXE     CLOUDY    55  24  30 E10       30.23S
SALINA         CLOUDY    58  29  33 E13G21    30.20R
TOPEKA BILLARD PTCLDY    56  28  34 NE12      30.22F
TOPEKA FORBES  MOCLDY    57  28  33 E8        30.22S
$$




USA.gov is the U.S. government's official web portal to all federal, state and local government web resources and services.